Regional Weather Roundup
Issued by NWS

Home | Current Version | Previous Version | Text Only | Print | Product List | Glossary Off
Versions: 1 2 3 4 5 6 7 8 9 10 11 12 13 14 15 16 17 18 19 20 21 22 23 24 25 26 27 28 29 30 31 32 33 34 35 36 37 38 39 40 41 42 43 44 45 46 47 48 49 50

000
ASUS43 KDMX 221407
RWRIA

WEATHER ROUNDUP FOR IOWA
NATIONAL WEATHER SERVICE DES MOINES IA
900 AM CDT TUE JUL 22 2014

NOTE: "FAIR" INDICATES FEW OR NO CLOUDS BELOW 12,000 FEET WITH NO
SIGNIFICANT WEATHER AND/OR OBSTRUCTIONS TO VISIBILITY.

* - THESE STATIONS ARE NOT NWS STATIONS...THUS NOT UNDER NWS
QUALITY CONTROL.  THEY ALSO DO NOT REPORT WEATHER SUCH
AS PRECIPITATION OR FOG.

IAZ001>003-012>014-020>022-031>034-043>046-221500-
   NORTHWEST IOWA

CITY           SKY/WX    TMP DP  RH WIND       PRES   REMARKS
CARROLL *      SUNNY     81  73  78 N15G22    29.98F HX  85
CHEROKEE *     SUNNY     75  66  73 NE10      29.94F
DENISON *      SUNNY     81  72  74 NE13      29.98S HX  84
LE MARS *      SUNNY     77  66  69 NE8       29.97R
ORANGE CITY *  SUNNY     75  63  64 E7        29.97R
SHELDON *      SUNNY     75  64  69 NE15G21   29.97R
SIOUX CITY     MOSUNNY   81  66  60 E5        29.97R HX  83
SPENCER        MOSUNNY   75  64  68 NE12      29.95F
STORM LAKE *   SUNNY     75  68  78 NE13G18   29.98F
$$

IAZ055>058-069>071-079>083-090>094-221500-
   SOUTHWEST IOWA

CITY           SKY/WX    TMP DP  RH WIND       PRES   REMARKS
ATLANTIC *     SUNNY     81  75  83 VRB3      29.98R HX  86
AUDUBON *      SUNNY     82  79  89 NW5       30.01S HX  93
CLARINDA *     SUNNY     81  75  83 SW7       30.00S HX  86
COUNCIL BLFS * SUNNY     82  77  83 NW6       29.98R HX  91
CRESTON *        N/A     79  75  89 SW10      29.99R HX  82
HARLAN  *      MOSUNNY   81  75  83 N8        30.02S HX  86
LAMONI         PTSUNNY   80  75  84 SW16      29.98S HX  85
RED OAK *      SUNNY     81  75  83 SW8       29.99R HX  86
SHENANDOAH *   SUNNY     82  77  83 SW8       29.99R HX  91
$$

IAZ047>049-059>061-072>074-084-221500-
   CENTRAL IOWA

CITY           SKY/WX    TMP DP  RH WIND       PRES   REMARKS
AMES           PTSUNNY   83  74  74 W12       29.95R HX  89
ANKENY *       SUNNY     82  77  83 W12       29.94R HX  91
CHARITON *     MOSUNNY   81  75  83 SW15      29.97R HX  86
DES MOINES     PTSUNNY   83  75  77 W18       29.94R HX  90
GRINNELL*      PTSUNNY   79  73  83 SW8       29.98R HX  82
KNOXVILLE *    SUNNY     81  75  83 SW13G20   29.94R HX  86
MARSHALLTOWN   SUNNY     83  75  77 W12G21    29.94R HX  90
PELLA *        CLOUDY    79  75  89 SW9       29.96R HX  82
PERRY *          N/A     84  75  74 W8        29.97S HX  92
$$

IAZ004>006-015-016-023>025-035-036-221500-
   NORTH CENTRAL IOWA

CITY           SKY/WX    TMP DP  RH WIND       PRES   REMARKS
ALGONA *       SUNNY     75  66  73 N15G24    29.99S
CLARION *      MOSUNNY   79  68  69 N15       29.97F HX  81
ESTHERVILLE    MOSUNNY   74  64  71 NE13      29.96F
FORT DODGE *   SUNNY     79  66  65 N10       29.99S HX  81
MASON CITY     SUNNY     80  71  74 NW17      29.98S HX  84
FOREST CITY *  SUNNY     77  64  65 N16G31    29.98R
IOWA FALLS *   CLOUDY    81  73  78 NW12G18   29.97F HX  85
$$

IAZ007>011-017>019-026>030-037>042-050>054-066-221500-
   NORTHEAST IOWA

CITY           SKY/WX    TMP DP  RH WIND       PRES   REMARKS
CEDAR RAPIDS   MOSUNNY   79  71  76 S16       29.95R HX  82
CHARLES CITY * CLOUDY    79  75  89 NW12G18   29.96S FOG     HX  82
DECORAH *      CLOUDY    77  73  88 VRB3G16   29.95R
DUBUQUE        SUNNY     77  71  82 SW16      29.97R
MONTICELLO *   PTSUNNY   79  73  83 S12       29.96R HX  82
OELWEIN *      MOSUNNY   81  75  83 SW10      29.97R HX  86
WATERLOO       PTSUNNY   82  74  76 W14       29.94R HX  88
$$

IAZ064-065-067-068-078-221500-
   EAST CENTRAL IOWA

CITY           SKY/WX    TMP DP  RH WIND       PRES   REMARKS
DAVENPORT      PTSUNNY   77  69  76 SW12      29.98S
IOWA CITY      MOSUNNY   78  71  79 S16G22    29.98R HX  80
MT. PLEASANT * RAIN      75  72  88 SW28G40   30.01F
MUSCATINE *    SUNNY     77  70  78 SW13G22   29.96F
QUAD CITIES    PTSUNNY   78  69  73 SW8       29.97F HX  80
$$

IAZ062-063-075>077-085>089-095>099-221500-
   SOUTHEAST IOWA

CITY           SKY/WX    TMP DP  RH WIND       PRES   REMARKS
BURLINGTON     CLOUDY    73  69  87 S13       30.03R
FAIRFIELD *    CLOUDY    73  68  83 S6G23     29.99F
FORT MADISON * HVY RAIN  73  72  94 SW7       30.05F
KEOKUK *       PTSUNNY   73  70  88 NW10      30.06R
OSKALOOSA *      N/A     75  72  88 S13       29.98R
CENTERVILLE *  SUNNY     77  73  88 SW9       30.01R
OTTUMWA        PTSUNNY   75  72  90 S12G21    29.96R
WASHINGTON *   MOSUNNY   75  72  88 S14G21    29.97F
$$

ABBREVIATIONS USED IN REMARKS
   TC - TEMPERATURES IN CELSIUS
  WCI - WIND CHILL INDEX
   HX - HEAT INDEX
  VSB - VISIBILITY
$$



USA.gov is the U.S. government's official web portal to all federal, state and local government web resources and services.